RYR61VB EIDW-EBBR

Flight info

Callsign RYR61VB
Flight time 1h 17m
Altitude 33000
Route PESIT4E PESIT DCT BAKUR DCT GUBJE DCT DAVAZ DCT AVZAC DCT ICOSA DCT RUHUN DCT UNZIB DCT NUCHU L607 BIG Q70 KOK
Aircraft B738/M-SDE2E3FGHIRWXY/LB1

Departure

Time 2026-05-07 14:42
Airport Dublin Airport (EIDW)

Arrival

Time 2026-05-07 15:59
Airport Brussels Airport (EBBR)
Time Latitude Longitude Altitude Speed Heading
2026-05-07 14:10 53.43115 -6.25230 210 ft 0 kts 67°
2026-05-07 14:25 53.43113 -6.25238 218 ft 4 kts 66°
2026-05-07 14:25 53.43101 -6.25278 215 ft 4 kts 57°
2026-05-07 14:26 53.43085 -6.25313 214 ft 4 kts 38°
2026-05-07 14:26 53.43064 -6.25329 217 ft 4 kts 347°
2026-05-07 14:26 53.43058 -6.25327 217 ft 1 kts 336°
2026-05-07 14:32 53.43069 -6.25335 213 ft 3 kts 336°
2026-05-07 14:32 53.43091 -6.25351 210 ft 4 kts 336°
2026-05-07 14:32 53.43114 -6.25368 218 ft 4 kts 336°
2026-05-07 14:33 53.43137 -6.25385 216 ft 4 kts 336°
2026-05-07 14:33 53.43160 -6.25401 216 ft 4 kts 337°
2026-05-07 14:33 53.43181 -6.25422 211 ft 4 kts 304°
2026-05-07 14:33 53.43178 -6.25499 216 ft 11 kts 253°
2026-05-07 14:34 53.43156 -6.25596 216 ft 2 kts 245°
2026-05-07 14:34 53.43150 -6.25616 215 ft 3 kts 245°
2026-05-07 14:34 53.43132 -6.25680 212 ft 9 kts 244°
2026-05-07 14:34 53.43077 -6.25730 213 ft 11 kts 178°
2026-05-07 14:35 53.43008 -6.25692 218 ft 10 kts 160°
2026-05-07 14:35 53.42937 -6.25647 217 ft 11 kts 158°
2026-05-07 14:35 53.42869 -6.25599 217 ft 11 kts 154°
2026-05-07 14:35 53.42800 -6.25543 216 ft 12 kts 154°
2026-05-07 14:36 53.42701 -6.25472 220 ft 20 kts 158°
2026-05-07 14:36 53.42566 -6.25438 213 ft 21 kts 223°
2026-05-07 14:36 53.42468 -6.25616 210 ft 20 kts 225°
2026-05-07 14:36 53.42369 -6.25783 210 ft 20 kts 225°
2026-05-07 14:37 53.42277 -6.25949 210 ft 19 kts 234°
2026-05-07 14:37 53.42270 -6.26377 210 ft 18 kts 275°
2026-05-07 14:37 53.42282 -6.26583 217 ft 17 kts 275°
2026-05-07 14:38 53.42292 -6.26780 210 ft 17 kts 275°
2026-05-07 14:38 53.42302 -6.26971 210 ft 16 kts 275°
2026-05-07 14:38 53.42313 -6.27154 212 ft 15 kts 275°
2026-05-07 14:38 53.42322 -6.27330 218 ft 15 kts 275°
2026-05-07 14:39 53.42330 -6.27499 210 ft 14 kts 275°
2026-05-07 14:39 53.42340 -6.27660 212 ft 14 kts 278°
2026-05-07 14:39 53.42351 -6.27828 218 ft 17 kts 275°
2026-05-07 14:39 53.42363 -6.28058 213 ft 21 kts 275°
2026-05-07 14:40 53.42377 -6.28305 213 ft 21 kts 275°
2026-05-07 14:40 53.42390 -6.28546 210 ft 20 kts 276°
2026-05-07 14:40 53.42403 -6.28779 210 ft 20 kts 275°
2026-05-07 14:40 53.42403 -6.29003 210 ft 19 kts 248°
2026-05-07 14:41 53.42291 -6.29065 209 ft 19 kts 173°
2026-05-07 14:41 53.42236 -6.28899 217 ft 18 kts 94°
2026-05-07 14:41 53.42216 -6.28549 211 ft 58 kts 95°
2026-05-07 14:41 53.42160 -6.27470 214 ft 125 kts 94°
2026-05-07 14:42 53.42069 -6.25739 364 ft 161 kts 92°
2026-05-07 14:42 53.42018 -6.23936 1076 ft 159 kts 101°
2026-05-07 14:42 53.41889 -6.21959 1500 ft 182 kts 102°
2026-05-07 14:42 53.41727 -6.19797 2215 ft 199 kts 101°
2026-05-07 14:43 53.41567 -6.17271 2337 ft 237 kts 101°
2026-05-07 14:43 53.41402 -6.14433 2903 ft 254 kts 99°
2026-05-07 14:43 53.41246 -6.11411 3725 ft 264 kts 97°
2026-05-07 14:43 53.41085 -6.08338 4701 ft 267 kts 98°
2026-05-07 14:44 53.40915 -6.05196 5591 ft 273 kts 100°
2026-05-07 14:44 53.40319 -6.02238 6468 ft 268 kts 129°
2026-05-07 14:44 53.39128 -5.99833 7347 ft 270 kts 134°
2026-05-07 14:44 53.37894 -5.97433 8256 ft 273 kts 135°
2026-05-07 14:45 53.36592 -5.95106 9127 ft 275 kts 147°
2026-05-07 14:45 53.34849 -5.93996 10010 ft 270 kts 175°
2026-05-07 14:45 53.32940 -5.93646 10525 ft 287 kts 176°
2026-05-07 14:45 53.30860 -5.93309 10751 ft 311 kts 176°
2026-05-07 14:46 53.28666 -5.92946 11347 ft 322 kts 176°
2026-05-07 14:46 53.26414 -5.92553 12133 ft 326 kts 175°
2026-05-07 14:46 53.24141 -5.92138 12925 ft 331 kts 175°
2026-05-07 14:46 53.21834 -5.91702 13732 ft 336 kts 175°
2026-05-07 14:47 53.19496 -5.91251 14399 ft 341 kts 175°
2026-05-07 14:47 53.17931 -5.90945 14896 ft 343 kts 175°
2026-05-07 14:47 53.15555 -5.90478 15645 ft 346 kts 175°
2026-05-07 14:47 53.13145 -5.90001 16341 ft 350 kts 175°
2026-05-07 14:48 53.10715 -5.89520 17068 ft 354 kts 175°
2026-05-07 14:48 53.08249 -5.89031 17695 ft 360 kts 175°
2026-05-07 14:48 53.05745 -5.88535 18382 ft 364 kts 175°
2026-05-07 14:48 53.03226 -5.88035 19007 ft 366 kts 175°
2026-05-07 14:49 53.00684 -5.87532 19629 ft 369 kts 175°
2026-05-07 14:49 52.98120 -5.87024 20233 ft 373 kts 175°
2026-05-07 14:49 52.95534 -5.86513 20823 ft 376 kts 175°
2026-05-07 14:49 52.92920 -5.85998 21406 ft 380 kts 175°
2026-05-07 14:50 52.90284 -5.85478 21984 ft 383 kts 175°
2026-05-07 14:50 52.87625 -5.84955 22549 ft 387 kts 175°
2026-05-07 14:50 52.84941 -5.84428 22969 ft 391 kts 175°
2026-05-07 14:50 52.82242 -5.83897 22961 ft 390 kts 175°
2026-05-07 14:51 52.79538 -5.83366 23090 ft 395 kts 175°
2026-05-07 14:51 52.76788 -5.82828 23599 ft 398 kts 175°
2026-05-07 14:51 52.74045 -5.82291 24177 ft 397 kts 175°
2026-05-07 14:51 52.71299 -5.81754 24718 ft 398 kts 175°
2026-05-07 14:52 52.68542 -5.81216 25169 ft 400 kts 175°
2026-05-07 14:52 52.65766 -5.80675 25598 ft 403 kts 175°
2026-05-07 14:52 52.62971 -5.80131 26036 ft 406 kts 175°
2026-05-07 14:52 52.60157 -5.79584 26442 ft 409 kts 175°
2026-05-07 14:53 52.57317 -5.79033 26827 ft 412 kts 175°
2026-05-07 14:53 52.54459 -5.78479 27256 ft 414 kts 175°
2026-05-07 14:53 52.51628 -5.77931 27669 ft 416 kts 175°
2026-05-07 14:53 52.48745 -5.77373 28065 ft 419 kts 175°
2026-05-07 14:54 52.45842 -5.76812 28447 ft 421 kts 175°
2026-05-07 14:54 52.42921 -5.76248 28826 ft 424 kts 175°
2026-05-07 14:54 52.39985 -5.75683 29196 ft 426 kts 175°
2026-05-07 14:54 52.37034 -5.75115 29522 ft 429 kts 175°
2026-05-07 14:55 52.34060 -5.74538 29793 ft 433 kts 175°
2026-05-07 14:55 52.31061 -5.73955 30125 ft 435 kts 175°
2026-05-07 14:55 52.28055 -5.73370 30437 ft 436 kts 175°
2026-05-07 14:55 52.25040 -5.72784 30739 ft 437 kts 175°
2026-05-07 14:56 52.22013 -5.72198 31024 ft 439 kts 175°
2026-05-07 14:56 52.18977 -5.71612 31284 ft 441 kts 175°
2026-05-07 14:56 52.15925 -5.71024 31545 ft 442 kts 175°
2026-05-07 14:56 52.12863 -5.70436 31796 ft 443 kts 175°
2026-05-07 14:57 52.09796 -5.69845 32060 ft 445 kts 175°
2026-05-07 14:57 52.06721 -5.69251 32305 ft 446 kts 175°
2026-05-07 14:57 52.03632 -5.68654 32534 ft 447 kts 175°
2026-05-07 14:57 52.00567 -5.67780 32851 ft 448 kts 162°
2026-05-07 14:58 51.97818 -5.65428 32993 ft 452 kts 143°
2026-05-07 14:58 51.95695 -5.61679 33029 ft 454 kts 126°
2026-05-07 14:58 51.92763 -5.52662 33006 ft 451 kts 119°
2026-05-07 14:59 51.89901 -5.43609 33004 ft 451 kts 120°
2026-05-07 14:59 51.86979 -5.34628 33008 ft 451 kts 120°
2026-05-07 15:00 51.84047 -5.25718 33007 ft 452 kts 121°
2026-05-07 15:00 51.81071 -5.16689 33015 ft 452 kts 121°
2026-05-07 15:01 51.78190 -5.07728 33006 ft 454 kts 115°
2026-05-07 15:01 51.76545 -4.97843 33025 ft 459 kts 103°
2026-05-07 15:02 51.75410 -4.87685 33003 ft 460 kts 102°
2026-05-07 15:02 51.74246 -4.77545 33008 ft 460 kts 103°
2026-05-07 15:03 51.73035 -4.67393 33010 ft 461 kts 103°
2026-05-07 15:03 51.71798 -4.57221 33012 ft 462 kts 103°
2026-05-07 15:04 51.70553 -4.47064 33020 ft 462 kts 103°
2026-05-07 15:04 51.69300 -4.36901 33020 ft 463 kts 103°
2026-05-07 15:05 51.68037 -4.26733 33016 ft 463 kts 103°
2026-05-07 15:05 51.66773 -4.16633 33015 ft 463 kts 103°
2026-05-07 15:06 51.65492 -4.06467 33018 ft 463 kts 103°
2026-05-07 15:06 51.64203 -3.96308 33025 ft 463 kts 103°
2026-05-07 15:07 51.62905 -3.86159 33012 ft 463 kts 104°
2026-05-07 15:07 51.61579 -3.76011 33020 ft 463 kts 104°
2026-05-07 15:08 51.60244 -3.65877 33016 ft 463 kts 104°
2026-05-07 15:08 51.59056 -3.55702 33020 ft 464 kts 98°
2026-05-07 15:09 51.58464 -3.45344 33022 ft 465 kts 96°
2026-05-07 15:09 51.57945 -3.34975 33029 ft 465 kts 96°
2026-05-07 15:10 51.57370 -3.24607 33037 ft 466 kts 97°
2026-05-07 15:10 51.56754 -3.14250 33036 ft 466 kts 97°
2026-05-07 15:11 51.56119 -3.03869 33035 ft 467 kts 97°
2026-05-07 15:11 51.55475 -2.93492 33043 ft 467 kts 97°
2026-05-07 15:12 51.54824 -2.83119 33025 ft 467 kts 97°
2026-05-07 15:12 51.54164 -2.72730 33012 ft 467 kts 97°
2026-05-07 15:13 51.53493 -2.62340 33019 ft 468 kts 97°
2026-05-07 15:13 51.52814 -2.51954 33021 ft 468 kts 98°
2026-05-07 15:14 51.52128 -2.41608 33020 ft 469 kts 98°
2026-05-07 15:14 51.51428 -2.31188 33015 ft 470 kts 98°
2026-05-07 15:15 51.50718 -2.20763 33023 ft 470 kts 98°
2026-05-07 15:15 51.49999 -2.10335 33036 ft 470 kts 98°
2026-05-07 15:16 51.49270 -1.99888 33035 ft 471 kts 98°
2026-05-07 15:16 51.48516 -1.89451 33023 ft 471 kts 98°
2026-05-07 15:17 51.47744 -1.79017 33039 ft 471 kts 98°
2026-05-07 15:17 51.46966 -1.68590 33037 ft 470 kts 98°
2026-05-07 15:18 51.45714 -1.58331 33038 ft 468 kts 105°
2026-05-07 15:18 51.44228 -1.48164 33030 ft 468 kts 104°
2026-05-07 15:19 51.42819 -1.37975 33029 ft 468 kts 104°
2026-05-07 15:19 51.41410 -1.27808 33034 ft 468 kts 104°
2026-05-07 15:20 51.39986 -1.17635 33034 ft 468 kts 104°
2026-05-07 15:20 51.39047 -1.07316 33039 ft 469 kts 96°
2026-05-07 15:21 51.38592 -0.96885 33028 ft 470 kts 95°
2026-05-07 15:21 51.38130 -0.86457 33042 ft 469 kts 96°
2026-05-07 15:22 51.37603 -0.76043 33049 ft 469 kts 96°
2026-05-07 15:22 51.37044 -0.65633 33044 ft 469 kts 96°
2026-05-07 15:23 51.36473 -0.55221 33056 ft 469 kts 96°
2026-05-07 15:23 51.35895 -0.44808 33044 ft 470 kts 96°
2026-05-07 15:24 51.35310 -0.34404 33046 ft 470 kts 96°
2026-05-07 15:24 51.34715 -0.23993 33044 ft 470 kts 97°
2026-05-07 15:25 51.34111 -0.13585 33042 ft 470 kts 97°
2026-05-07 15:25 51.33500 -0.03190 33038 ft 470 kts 97°
2026-05-07 15:26 51.32895 0.07227 33065 ft 470 kts 96°
2026-05-07 15:26 51.32646 0.12435 32960 ft 470 kts 95°
2026-05-07 15:26 51.32413 0.17657 32946 ft 471 kts 95°
2026-05-07 15:27 51.31944 0.28117 32915 ft 472 kts 95°
2026-05-07 15:27 51.31446 0.38579 32894 ft 472 kts 96°
2026-05-07 15:28 51.30932 0.49046 32888 ft 473 kts 96°
2026-05-07 15:28 51.30410 0.59520 32911 ft 473 kts 96°
2026-05-07 15:29 51.29989 0.70017 32946 ft 474 kts 94°
2026-05-07 15:29 51.29634 0.80533 32993 ft 474 kts 94°
2026-05-07 15:30 51.29254 0.90965 33039 ft 474 kts 95°
2026-05-07 15:30 51.28848 1.01538 33069 ft 473 kts 95°
2026-05-07 15:31 51.28435 1.11956 33067 ft 473 kts 95°
2026-05-07 15:31 51.28007 1.22433 33074 ft 472 kts 95°
2026-05-07 15:32 51.27573 1.32890 33072 ft 472 kts 95°
2026-05-07 15:32 51.27131 1.43342 33076 ft 471 kts 95°
2026-05-07 15:33 51.26757 1.52015 33073 ft 471 kts 95°
2026-05-07 15:33 51.26303 1.62437 33076 ft 470 kts 95°
2026-05-07 15:34 51.25843 1.72849 33076 ft 470 kts 95°
2026-05-07 15:34 51.25374 1.83250 33066 ft 464 kts 95°
2026-05-07 15:35 51.25145 1.88291 33051 ft 448 kts 95°
2026-05-07 15:35 51.24922 1.93154 33059 ft 432 kts 95°
2026-05-07 15:35 51.24702 1.97867 33054 ft 418 kts 95°
2026-05-07 15:35 51.24490 2.02419 33055 ft 405 kts 95°
2026-05-07 15:36 51.24289 2.06827 33053 ft 392 kts 95°
2026-05-07 15:36 51.24095 2.11093 33053 ft 379 kts 95°
2026-05-07 15:36 51.23907 2.15220 33053 ft 367 kts 95°
2026-05-07 15:36 51.23723 2.19210 33051 ft 356 kts 95°
2026-05-07 15:37 51.23351 2.27161 33111 ft 367 kts 95°
2026-05-07 15:37 51.22953 2.35459 33085 ft 378 kts 97°
2026-05-07 15:38 51.22420 2.39533 33062 ft 374 kts 112°
2026-05-07 15:38 51.21309 2.43246 33069 ft 369 kts 125°
2026-05-07 15:38 51.18089 2.49479 33064 ft 363 kts 134°
2026-05-07 15:39 51.16429 2.52470 32858 ft 359 kts 134°
2026-05-07 15:39 51.14787 2.55460 32453 ft 359 kts 134°
2026-05-07 15:39 51.13147 2.58470 31961 ft 362 kts 133°
2026-05-07 15:39 51.11494 2.61516 31427 ft 366 kts 133°
2026-05-07 15:40 51.09896 2.64709 30834 ft 374 kts 122°
2026-05-07 15:40 51.08970 2.68640 29919 ft 391 kts 103°
2026-05-07 15:40 51.08437 2.72965 28697 ft 407 kts 102°
2026-05-07 15:40 51.07919 2.77505 27258 ft 428 kts 101°
2026-05-07 15:41 51.07382 2.82259 25934 ft 444 kts 101°
2026-05-07 15:41 51.06824 2.87125 25048 ft 449 kts 101°
2026-05-07 15:41 51.06256 2.91974 24492 ft 443 kts 102°
2026-05-07 15:41 51.05692 2.96694 24001 ft 437 kts 102°
2026-05-07 15:42 51.05121 3.01410 23401 ft 433 kts 102°
2026-05-07 15:42 51.04548 3.06094 22722 ft 429 kts 102°
2026-05-07 15:42 51.03977 3.10723 22092 ft 425 kts 102°
2026-05-07 15:42 51.03410 3.15310 21494 ft 421 kts 102°
2026-05-07 15:43 51.02838 3.19914 20897 ft 417 kts 102°
2026-05-07 15:43 51.02278 3.24410 20304 ft 413 kts 102°
2026-05-07 15:43 51.01720 3.28878 19724 ft 410 kts 102°
2026-05-07 15:43 51.01167 3.33291 19160 ft 406 kts 102°
2026-05-07 15:44 51.00616 3.37677 18615 ft 403 kts 102°
2026-05-07 15:44 51.00068 3.42018 18027 ft 400 kts 102°
2026-05-07 15:44 50.99523 3.46331 17442 ft 396 kts 102°
2026-05-07 15:44 50.98987 3.50582 16886 ft 391 kts 101°
2026-05-07 15:45 50.98794 3.54869 16329 ft 388 kts 89°
2026-05-07 15:45 50.98910 3.59131 15795 ft 384 kts 87°
2026-05-07 15:45 50.99079 3.63342 15255 ft 381 kts 86°
2026-05-07 15:45 50.99258 3.67518 14727 ft 378 kts 86°
2026-05-07 15:46 50.99637 3.75759 13682 ft 371 kts 84°
2026-05-07 15:46 50.99942 3.79801 13141 ft 368 kts 83°
2026-05-07 15:46 51.00286 3.83772 12908 ft 356 kts 82°
2026-05-07 15:47 51.00627 3.87594 12725 ft 344 kts 82°
2026-05-07 15:47 51.00964 3.91321 12423 ft 337 kts 82°
2026-05-07 15:47 51.01298 3.94970 12126 ft 331 kts 82°
2026-05-07 15:47 51.01629 3.98552 11828 ft 326 kts 82°
2026-05-07 15:48 51.01959 4.02096 11446 ft 323 kts 82°
2026-05-07 15:48 51.02289 4.05598 11250 ft 315 kts 82°
2026-05-07 15:48 51.02610 4.08981 11168 ft 304 kts 82°
2026-05-07 15:48 51.02921 4.12247 11051 ft 295 kts 82°
2026-05-07 15:49 51.03232 4.15483 10540 ft 302 kts 82°
2026-05-07 15:49 51.03552 4.18799 10078 ft 306 kts 82°
2026-05-07 15:49 51.03879 4.22163 9572 ft 310 kts 82°
2026-05-07 15:49 51.04210 4.25576 9041 ft 314 kts 82°
2026-05-07 15:50 51.04542 4.29023 8514 ft 316 kts 82°
2026-05-07 15:50 51.04870 4.32487 7997 ft 318 kts 82°
2026-05-07 15:50 51.05195 4.35965 7491 ft 318 kts 82°
2026-05-07 15:50 51.05516 4.39444 6991 ft 319 kts 82°
2026-05-07 15:51 51.05832 4.42931 6497 ft 318 kts 82°
2026-05-07 15:51 51.06144 4.46411 5975 ft 318 kts 82°
2026-05-07 15:51 51.06453 4.49893 5455 ft 317 kts 82°
2026-05-07 15:51 51.06756 4.53357 4960 ft 317 kts 82°
2026-05-07 15:52 51.07056 4.56830 4441 ft 317 kts 82°
2026-05-07 15:52 51.07347 4.60255 3906 ft 307 kts 82°
2026-05-07 15:52 51.07625 4.63565 3390 ft 298 kts 82°
2026-05-07 15:52 51.07892 4.66781 2862 ft 290 kts 82°
2026-05-07 15:53 51.07922 4.69924 2335 ft 283 kts 104°
2026-05-07 15:53 51.06971 4.72510 2143 ft 266 kts 138°
2026-05-07 15:53 51.05419 4.73861 2076 ft 247 kts 163°
2026-05-07 15:53 51.03808 4.74500 2055 ft 233 kts 167°
2026-05-07 15:54 51.02280 4.75030 2080 ft 216 kts 167°
2026-05-07 15:54 51.00870 4.75509 2062 ft 198 kts 167°
2026-05-07 15:54 50.99559 4.75845 2046 ft 187 kts 182°
2026-05-07 15:54 50.98425 4.75009 2065 ft 184 kts 232°
2026-05-07 15:55 50.97872 4.73171 2096 ft 188 kts 247°
2026-05-07 15:55 50.97330 4.71250 2093 ft 192 kts 245°
2026-05-07 15:55 50.96769 4.69329 2060 ft 190 kts 245°
2026-05-07 15:55 50.96228 4.67468 2050 ft 180 kts 245°
2026-05-07 15:56 50.95723 4.65729 2051 ft 168 kts 245°
2026-05-07 15:56 50.95240 4.64065 2050 ft 167 kts 245°
2026-05-07 15:56 50.94745 4.62357 1844 ft 171 kts 245°
2026-05-07 15:56 50.94252 4.60655 1614 ft 169 kts 245°
2026-05-07 15:57 50.93768 4.58982 1386 ft 165 kts 245°
2026-05-07 15:57 50.93298 4.57359 1196 ft 158 kts 245°
2026-05-07 15:57 50.92832 4.55745 945 ft 160 kts 245°
2026-05-07 15:57 50.92385 4.54196 726 ft 150 kts 246°
2026-05-07 15:58 50.91961 4.52702 529 ft 148 kts 246°
2026-05-07 15:58 50.91533 4.51224 330 ft 147 kts 245°
2026-05-07 15:58 50.91102 4.49756 143 ft 146 kts 246°
2026-05-07 15:58 50.90713 4.48411 120 ft 118 kts 246°
2026-05-07 15:59 50.90459 4.47528 120 ft 56 kts 245°
2026-05-07 15:59 50.90378 4.47254 121 ft 11 kts 245°
2026-05-07 15:59 50.90344 4.47137 124 ft 13 kts 245°
2026-05-07 15:59 50.90288 4.46964 125 ft 21 kts 238°
2026-05-07 16:00 50.90210 4.46999 124 ft 16 kts 117°
2026-05-07 16:00 50.90169 4.47155 125 ft 16 kts 74°
2026-05-07 16:00 50.90214 4.47310 119 ft 15 kts 66°
2026-05-07 16:00 50.90256 4.47459 119 ft 15 kts 65°
2026-05-07 16:01 50.90298 4.47605 119 ft 14 kts 65°
2026-05-07 16:01 50.90340 4.47744 118 ft 14 kts 64°
2026-05-07 16:01 50.90379 4.47878 119 ft 13 kts 66°
2026-05-07 16:01 50.90414 4.48004 118 ft 11 kts 66°